Location: Igon
(43.1667°N, 0.2333°W)
Time: 12:54:24
(UTC+00:00)

USA 234 - Pass Details

Date: 29 November 2020
Orbit: 1098 x 1110 km, 123.0° (Epoch: 22 January)

Event Time Altitude Azimuth Distance (km) Brightness Sun altitude
Rises 05:50:49 0° 50° (NE) 3,939 6.7 -14.3°
Reaches altitude 10° 05:53:20 10° 53° (NE) 2,978 6.0 -13.9°
Maximum altitude 05:59:52 65° 135° (SE) 1,210 3.7 -12.7°
Drops below altitude 10° 06:06:22 10° 217° (SW) 2,962 5.3 -11.6°
Sets 06:08:53 0° 220° (SW) 3,916 5.9 -11.2°
